Back to catalog

STARLINK-1226

AliveCommunicationsVLEO
NORAD 45229·PAYLOAD·🇺🇸 United States

Launched Feb 17, 2020 from Cape Canaveral Space Force Station

Loading…

Next Passes (next 24 hours)

TLE

FreshSource: CelesTrak SupGP

Epoch: Sep 14, 2026, 11:34 UTC

1 45229C 20012BD  26257.48243056  .00025374  00000+0  37046-3 0  2571
2 45229  53.1488 182.7061 0002712 110.6438 290.6761 15.55025456    13

Track STARLINK-1226 in real time with AllMySat

Download on the App Store